timestamp,gas_concentrations,,corrected_fluxes_and_quality_flags,,,,,,,,,,storage_terms,,,turbulence,,,footprint,,
ISOdate,CO2_1_1_1,H2O_1_1_1,Tau_1_1_1,QcTau_1_1_1,H_1_1_1,QcH_1_1_1,LE_1_1_1, QcLE_1_1_1,Fc_1_1_1, QcFc_1_1_1,E_1_1_1, QcE_1_1_1,Sa_1_1_1,Sw_1_1_1,Sc_1_1_1,ustar_1_1_1,MO_length_1_1_1,ZL_1_1_1,Fetchmax_1_1_1,Fetch70_1_1_1,Fetch90_1_1_1
yyyymmddHHMM,[µmol+1mol_a-1],[mmol+1mol_a-1],[kg+1m-1s-2],[#],[W+1m-2],[#],[W+1m-2],[#],[µmol+1s-1m-2],[#],[mmol+1s-1m-2],[#],[W+1m-2],[W+1m-2],[µmol+1s-1m-2],[m+1s-1],[m],[#],[m],[m],[m]
201806070030,392.49048201212963,15.832820849333181,0.21911486101209118,0,0.82219393126271767,0,37.052684578991737,1,-4.7393316640815977,1,0.83666225627916535,1,-9999.,-9999.,-9999.,0.44187915183276855,-8788.9884312766699,-2.45762071129071100E-003,109.28351089333883,199.80511210116049,299.34446718596860
201806070100,391.34175274505873,16.061626541807957,0.12057373352188519,0,-14.599130255664697,0,16.581522333980011,0,-1.6983118153914034,0,0.37431355417995876,0,-6.3133473533499345,7.6892396974159354,-0.87145589832098380,0.32764179668578008,201.78532347147382,0.10704445510901377,96.864845867234862,177.09983170337716,265.32781970629190
201806070130,392.29163605637979,16.148404472199804,0.15070431817499103,0,-30.017829234311755,0,8.3781090237564282,0,-2.42693441569481472E-002,0,0.18904043101591927,0,-10.732488073250114,2.9225725698258649,0.72183006093318081,0.36599442655293030,136.79659415136319,0.15789866797487628,109.17620901122773,199.60893003848130,299.05055070702286
201806070200,393.44323824175285,16.232076593177208,0.11692437416964974,0,-35.420967848391122,0,1.6183103609558078,1,1.9816723805912748,0,3.65027270086661082E-002,1,-7.7092077430835966,2.8223089273601154,0.87617276174809544,0.32218831316609220,79.087126287763652,0.27311651104134188,118.19748064342929,216.10269176916267,323.76121133648354
201806070230,395.29791154888568,16.254928213473256,6.68420108725105711E-002,0,-29.341861471619151,0,-4.2773156302227449,0,2.5268236477266091,0,-9.64333065840627113E-002,0,-11.059475175898880,0.77292976236946842,1.4143152121557601,0.24332578634586213,41.142217571819742,0.52500816131979400,106.54423418505539,194.79684063092137,291.84116389699983
201806070300,396.66578379662855,16.292392469037583,7.85906928228668339E-002,0,-24.559020734349932,0,-6.5766280148206642,1,1.9989377553338255,0,-0.14823875425654617,1,-5.1892183456608132,1.2695056655889145,1.0447720674856460,0.26363521727764544,62.554666612736824,0.34529797966506948,99.241462695182904,181.44504524792671,271.83774139760425
201806070330,398.99731266769112,16.259063221963316,8.08088526094764698E-002,0,-27.829975083831958,0,-9.4295281692194202,0,2.2944719611133113,0,-0.21247119100761561,0,-7.9341730708245564,-1.1321455720555738,1.7845456304521849,0.26704789543054958,57.408919314941443,0.37624815547395807,100.73374852921555,184.17341969269430,275.92534349078426
201806070400,401.15208711382161,16.275498747693820,0.11354314746420321,0,-28.101445198328580,0,4.9052170915014077,0,2.4301070732116816,0,0.11052312059401631,0,-0.81247861585856362,0.55860899932824071,1.6501409796779354,0.31646473738028880,94.645495388061590,0.22822005327814668,117.97407411261835,215.69423337898178,323.14926623712876
201806070430,403.30629553293602,14.673523181272138,0.13033612687840973,0,-44.901694526054364,0,42.483264797196718,0,3.0191981018484366,0,0.95704237229006683,0,-4.3699839603655093,-54.498184577912987,1.6509242554775114,0.33883234073852714,72.684182791365714,0.29717607284656578,101.55414118597561,185.67335912006956,278.17252607774202
201806070500,406.75528438791645,13.179365357269472,0.15123064737458569,0,-52.968643719785860,0,25.907194882123690,2,3.5862489757293985,0,0.58333456218151902,2,-11.586662482317690,-50.958838665318588,2.6485742750524306,0.36450924982140664,76.702829918346836,0.28160629826818706,106.24909428759118,194.25723076831443,291.03272999302351
201806070530,408.40383277238999,11.711422942749145,0.10500701172112474,0,-44.764031871867935,0,38.318026088807372,0,2.9320925711630070,0,0.86225727261993845,0,-14.177331639410525,-50.208598815469649,1.2688331535005730,0.30330911941284594,52.280364538000022,0.41315702732524034,99.927364745515419,182.69909295317348,273.71653337747523
201806070600,409.23657526698332,11.311948247059568,0.16222696540699930,0,-60.048548346742749,0,34.729248693987785,0,5.3087758101154510,0,0.78100488205393537,0,-14.849691728329153,-13.699560228433990,0.64222386371620777,0.37658971108732170,74.574382629566628,0.28964369852438060,95.820223558373783,175.18992895758166,262.46643736324296
201806070630,409.78260992653304,11.207040407782634,0.17631215735556172,0,-38.041769897746747,0,18.789253751243102,0,3.1683301483303001,0,0.42232238655073046,0,-12.097573247827807,-3.6064631112870495,0.42191827233512419,0.39221409892947540,132.98329798020023,0.16242641239966846,105.45235049058381,192.80052899898405,288.85032529674982
201806070700,410.39058603079445,11.148305993921783,6.38754207549201425E-002,0,-19.849231992505374,0,15.463966061257787,0,3.7074541542579071,0,0.34737391481070823,0,-14.002485990361679,-2.0252903155883968,0.47093120888793483,0.23578311231333085,55.380917010343452,0.39002604445798156,90.749785443007980,165.91955094939843,248.57772182293616
201806070730,410.68577729310732,11.023708810923354,8.85107103905297121E-002,0,-33.789344416002464,0,11.834381256370486,0,3.9828651623983458,0,0.26575757410369566,0,-7.4019392868382266,-4.3052829156379859,0.22905356989856554,0.27730145373111537,52.944391410346107,0.40797522503543304,104.62707576993498,191.29166360176569,286.58976998044244
201806070800,410.90006778433121,11.025091605241522,5.24329526139561339E-002,0,-30.294408907227172,0,4.4086271444229768,0,3.4497585215169897,0,9.89814439507862159E-002,0,-4.8793968007970765,4.78409147768610529E-002,0.16645437102420194,0.21331781956339718,26.887724217462342,0.80334058119994378,98.856803814533805,180.74176613344244,270.78410112987314
201806070830,410.72828960733989,11.041554016532576,5.30741673916782231E-002,0,-30.264121576438058,0,8.5360617988417520,0,4.1079905552943208,0,0.19160185440846975,0,-5.8989066450013494,0.57041081293341056,-0.13359938185713185,0.21448447052849565,27.365249612732189,0.78932223552421765,87.460358133110788,159.90542871787440,239.56747080355603
201806070900,411.97822932240933,11.039602355930802,5.45899937926009049E-002,0,-30.416284508928669,0,4.0815098810908488,0,3.7824642445657632,0,9.15930558721115007E-002,0,-5.4820784447732347,-6.77221695274042579E-002,0.97332377423587979,0.21739258028698499,28.358469721321583,0.76167720657225157,94.829439918428889,173.37846046952771,259.75252747536115
201806070930,411.99454175197866,10.925318288257195,4.87629113475607917E-002,0,-27.349291939396561,0,4.1550250564780633,0,3.7180863311070400,0,9.32165425202046427E-002,0,-6.6865269302773624,-3.9716476632825253,1.27181228969607020E-002,0.20533147812698227,26.578280721156023,0.81269365112870662,92.547524703651803,169.20639167738506,253.50200817425912
201806071000,412.51426657433552,10.853306182198068,5.74387997799192113E-002,0,-39.034532633029229,0,-1.3656498650542312,0,5.8089972315381120,0,-3.06270126557382921E-002,0,-8.4340674266268234,-2.5069393277957235,0.40576729734071043,0.22269366020909753,23.757265978666961,0.90919552861831432,88.926437176119691,162.58588879042330,243.58328843601063
201806071030,412.97750568286131,10.840534741777708,8.30880016735724980E-002,0,-47.930240574703490,0,-2.2568514986107577,1,7.6959029006043149,0,-5.06056414223223297E-002,1,-3.7979693303456101,-0.44494690183814750,0.36188407590312344,0.26775830038810533,33.631245433269058,0.64225989022198449,91.646406757880300,167.55886067568647,251.03370651425888
201806071100,412.69047563952597,10.805523802628732,8.99258865477900321E-002,0,-29.303411801643009,0,3.0409205514560789,0,4.4097381475643154,0,6.81809706127525506E-002,0,-2.0758107467491929,-1.2211157502437162,-0.22445978088147209,0.27841318723253800,61.871600582067209,0.34911008922986420,103.91274264180299,189.98563481867430,284.63310087376766
201806071130,409.47498995654513,10.921737408978693,0.14542582951272931,0,-6.9539947279742185,1,17.862425811350718,0,-0.13821104717814980,2,0.40061230975929712,0,6.8915052634518901,4.0490677296095852,-2.5126297348713074,0.35419500000953674,536.95657629160542,4.02267165609117572E-002,107.17954326475734,195.95838825005512,293.58137389215096
201806071200,407.48819559542534,11.021184411071429,5.33478135648697629E-002,0,10.158521095720340,0,17.306487248096651,0,-3.0483521340401318,0,0.38819559544800891,0,3.1691431042626670,3.4651531965231803,-1.5528351020292530,0.21450771178544520,-81.690077558788019,-0.26441399794798365,89.202011178554955,163.08972595669519,244.33812832223830
201806071230,404.39520674457498,11.224205411835328,8.23415679688261626E-002,1,29.603585469502214,0,33.090425911348028,0,-6.1047701838611754,0,0.74265563746779328,0,13.317489579298261,7.0590790288414667,-2.4136292447993846,0.26671719347616907,-53.907784039792439,-0.40068424968193456,105.52814025820243,192.93909686609749,289.05792521205717
201806071300,402.26365820355443,11.463298069630291,8.76119427969976605E-002,1,41.095204785353744,0,24.498334126883229,1,-8.5612510196705696,0,0.55009175750566852,1,11.653799103210138,8.2966729793989202,-1.6608543325317007,0.27534092197259347,-42.734162732101687,-0.50545040826959253,98.490659462332999,180.07233748186763,269.78117502394235
201806071330,398.59860392784128,11.858499846532785,0.37146446029312202,1,117.80283677633943,0,114.82629014383953,1,-17.875760696223821,1,2.5801867098613100,1,16.933544595141615,13.664849419015178,-2.8475815633650345,0.56780683019667044,-130.72562005353780,-0.16523157427865989,133.77770717043018,244.58831491890939,366.43786557495986
201806071400,399.17382403553626,11.630021806302873,0.15322575088628437,1,98.926920708231776,0,63.091787355526833,0,-12.635227982334646,0,1.4182247599286919,0,8.8245909524633603,-7.8896144883649626,0.44649603759543705,0.36483384389240708,-41.304713184280764,-0.52294274272361396,105.84430817341318,193.51715265168744,289.92395811442645
201806071430,398.60045001491886,11.863000423442214,0.19883206713337770,1,188.41727806781810,1,108.29558485902471,1,-18.873016859935248,1,2.4358900752261805,1,14.886946865401846,8.0235857436747633,-0.44415788975568238,0.41603872709228790,-32.167189200107487,-0.67149168258468239,112.89479174474000,206.40768525647593,309.23632491898610
201806071500,398.49792399777289,11.812603872665893,0.22501610620064191,1,206.38169940977926,0,143.02592298247802,0,-21.461288371449349,0,3.2189969723564413,0,13.990766086073059,-1.7308889917944026,-7.92516472758593576E-002,0.44305309040578694,-35.468194048117553,-0.60899632980175389,113.09486824960454,206.77348891849672,309.78436546284786
201806071530,397.34515857556744,11.757640576143471,0.22161374585376095,1,183.28054778898215,0,165.83252953840494,0,-22.193959681460669,0,3.7345599567078627,0,14.224530651285875,-1.8826963251605136,-0.88923828927574822,0.44014044751142634,-39.159931398756655,-0.55158421448832806,105.01384183462928,191.99879532073649,287.64918215173083
201806071600,397.04724720537990,11.501510319670443,0.24994407148135434,1,240.40056180869561,0,144.14768471421829,0,-21.759295562105031,0,3.2477932007593511,0,11.348409493649401,-8.7557726211954705,-0.22945702924659239,0.46776173602699078,-35.840830595410580,-0.60266460461900906,111.30499407812013,203.50102808193500,304.88162280923876
201806071630,397.19405040774183,11.113783410732474,0.18905386473809740,1,212.52078765302971,0,155.51170222295787,0,-18.846682041203586,0,3.5049062416475700,0,7.1246652948872198,-13.239073040911217,0.11297451728813061,0.40695720414831593,-26.701494212089326,-0.80894349314056069,102.51851152000064,187.43653566081016,280.81408582860348
201806071700,397.10643857620431,10.807313570408986,3.79716132897186878E-002,0,218.31634084849912,0,153.89742468252439,0,-18.218089144967212,0,3.4693508766788006,0,5.5553792066016747,-10.452815931471839,-6.73635851467256491E-002,0.18245319912937386,-2.3422391894329082,-9.2219445808306588,40.229248849831066,117.00000000000000,251.00000000000000
201806071730,397.28530369452051,10.775348619902053,0.10181468609707628,0,201.47668762994803,0,138.57493148742680,0,-16.410472780458228,0,3.1256009198787229,0,12.420180737235443,-1.0877632603536072,0.13728872051509658,0.29902062910629029,-11.173792209102352,-1.9330948343933130,80.385971389590708,146.97119349079082,220.18962950713791
201806071800,396.13819494787737,10.710802167086449,0.13142159366191142,0,182.02840139897796,0,107.69199680334357,0,-13.840212623403806,0,2.4298357398305224,0,7.7326097269237319,-2.1936240939995737,-0.87960543577319938,0.33988885616267311,-18.165927470952500,-1.1890392073038174,83.677403126225656,152.98898045367059,229.20537096189045
201806071830,395.52700094690931,10.566400350247571,0.27018691511777426,1,255.07236730146136,1,196.91326051921666,1,-22.109060634008308,1,4.4453883175443103,1,12.867029930630672,-4.8951057152050197,-0.46773863205805988,0.48781302288141593,-38.324760740902640,-0.56360430130349382,104.88104968768381,191.75600892423714,287.28544388830090
201806071900,395.03007216298766,10.528238958889341,0.19274627219088092,1,163.99413827230902,0,130.46292044439966,0,-14.481701092544945,0,2.9451218907287666,0,-0.98978860219321774,-1.2937277120810498,-0.38030235209288643,0.41200807860403910,-35.911101490931102,-0.60148530964595470,92.258330269863350,168.67765201858577,252.70985981639714
201806071930,394.61668295108598,10.446548679294388,0.17591407910281709,1,180.03182214725706,0,139.69984721912780,0,-15.438177193939600,0,3.1539916647880015,0,2.5817677176576921,-2.7684857265739637,-0.31629742417362028,0.39364566592179723,-28.533517820922526,-0.75700445124090365,89.781077176257924,164.14844328412380,245.92427980228257
201806072000,394.96757542787884,9.9967284043192688,0.42164016641065294,1,253.48015379195556,1,320.98672075990237,1,-21.254863340332470,1,7.2497561065155898,1,9.1416565557186793,-15.222981641608667,0.26820760269571953,0.60968965927564078,-75.312172757054469,-0.28680622546475049,128.56669393435493,235.06092075593406,352.16409300029915
201806072030,394.57274124486315,9.9687103384468951,9.36970844372584377E-002,1,154.65598556837924,0,214.12495174024474,0,-19.261477585508779,0,4.8384937205852587,0,10.975991184169631,-0.94633534710978040,-0.30134539456672260,0.28762204999430546,-12.961271737413645,-1.6665031362354703,86.443408640134777,158.04612070530877,236.78188859045292
201806072100,393.26447775109096,9.9800767181882311,0.14561173611533287,1,123.26527780596469,0,104.42865606552664,1,-16.410825283329178,0,2.3603222261614838,1,5.7697054063984785,0.38354413343740057,-0.99779198914276468,0.35868298666696108,-31.542820438877946,-0.68478340552505024,107.15767085058401,195.91839850109758,293.52146196112619
201806072130,392.03796061662143,10.353038088600004,2.21512373017517146E-002,1,132.66141133501691,1,178.74640623191740,1,-22.354828802772815,1,4.0399572434395248,1,-0.64529696340358189,12.586614008406745,-0.93553088937683937,0.13990152971533054,-1.7392255426601493,-12.419320824234649,37.721893597118061,109.00000000000000,232.00000000000000
201806072200,391.21775359275085,10.481750069749181,0.11882718194545396,1,155.19259183214899,0,161.22521752628174,0,-16.171730107006759,0,3.6450959451693712,0,7.2392244085337261,4.3378242025152893,-0.62496032743012320,0.32420503177448490,-18.503520163150476,-1.1673454461392772,91.119722579385240,166.59591402009428,249.59103695232690
201806072230,392.03867380103026,10.300566096631428,0.13128145469470842,1,87.317058080628186,0,114.31228496274127,0,-13.119560122544222,0,2.5845676780171933,0,1.0076504868680307,-6.1057622146876591,0.62548378806594584,0.34076543288638544,-38.190836207044853,-0.56558070325822218,113.05658114274320,206.70348787610772,309.67949114548912
201806072300,392.11093534180020,10.303930834205476,0.12592043510926343,1,58.659370952510109,1,85.170385121554887,1,-11.613902462560915,1,1.9261297065796987,1,5.3968722707478953,0.11326877927211801,5.50127250027845974E-002,0.33387339553057527,-53.469187550296667,-0.40397097823268041,124.02474209550275,226.75678421327063,339.72298324758890
201806072330,392.17368846625141,10.453975061351725,5.76822672149782251E-002,1,16.561465755088179,0,54.667874699046244,0,-6.6242775907707978,0,1.2360379533480781,0,-5.1572426944070688,5.0566269082430519,4.78163685758374105E-002,0.22587834021861328,-58.648669592105428,-0.36829479935735032,104.67467622946967,191.37869242318303,286.72015501365325
201806080000,391.52943770180201,11.287716570682381,8.10661651078996015E-002,0,-5.2309427428712985,2,48.064892542689478,0,-3.1941446128232247,0,1.0862099347626288,0,-11.357772077540332,28.159503399267379,-0.49173860510006578,0.26759187285083064,308.75429963596207,6.99585399311606765E-002,111.89109441582359,204.57260642637220,306.48704243634603
